Location: Hengforden
(52.3167°N, 6.1333°E)
Time: 16:10:29
(UTC+00:00)

Meteor 2-10 Rocket - Pass Details

Date: 14 June 2025
Orbit: 732 x 882 km, 81.2° (Epoch: 19 July)

Event Time Altitude Azimuth Distance (km) Brightness Sun altitude
Rises 20:40:32 0° 345° (NNW) 3,484 8.3 -5.3°
Reaches altitude 10° 20:43:02 10° 342° (NNW) 2,530 7.5 -5.5°
Maximum altitude 20:48:44 66° 262° (W) 931 4.1 -6.1°
Drops below altitude 10° 20:54:13 10° 181° (S) 2,431 5.6 -6.6°
Enters shadow 20:56:10 - 179° (S) 3,180 6.2 -6.7°
